Barksdale AFB, LA

9:43 AM CDT on August 17, 2017 (GMT -0500)
Barksdale Air Force Base

Weather History for KBAD - January, 2014

Change the Weather History Date:

Monday, January 13, 2014

  Actual Average Record
Temperature  
Mean Temperature 55 °F -  
Max Temperature 68 °F 54 °F 77 °F (2007)
Min Temperature 42 °F 35 °F 22 °F (2011)
Degree Days  
Heating Degree Days 10    
Growing Degree Days 5 (Base 50)    
Moisture  
Dew Point 48 °F    
Average Humidity 74    
Maximum Humidity 100    
Minimum Humidity 25    
Precipitation  
Precipitation 0.08 in - - ()
Sea Level Pressure  
Sea Level Pressure 29.89 in    
Wind  
Wind Speed 16 mph (SW)    
Max Wind Speed 25 mph    
Max Gust Speed 30 mph    
Visibility 10 miles    
Events Rain    
Averages and records for this station are not official NWS values.
T = Trace of Precipitation, MM = Missing Value Source: NWS Daily Summary

Daily Weather History Graph

Daily Weather History Graph

Search for Another Location

Airport or City:

Trip Planner

Search our weather history database for the weather conditions in past years. The results will help you decide how hot, cold, wet, or windy it might be!

Date:

Astronomy

Jan. 13, 2014 Rise Set
Actual Time 7:16 AM CST 5:30 PM CST
Civil Twilight 6:50 AM CST 5:56 PM CST
Nautical Twilight 6:19 AM CST 6:27 PM CST
Astronomical Twilight 5:50 AM CST 6:56 PM CST
Moon 3:44 PM CST (1/13) 5:07 AM CST (1/13)
Length of Visible Light 11h 06m
Length of Day
10h 13m
Waxing Gibbous, 95% of the Moon is Illuminated
Jan 13
Waxing Gibbous
Jan 15
Full
Jan 23
Last Quarter
Jan 30
New
Feb 6
First Quarter

Hourly Weather History & Observations

Time (CST) Temp. Dew Point Humidity Pressure Visibility Wind Dir Wind Speed Gust Speed Precip Events Conditions
12:20 AM 57.2 °F 50.0 °F 77% 29.89 in 10.0 mi South 23.0 mph 29.9 mph N/A   Partly Cloudy
12:58 AM 57.0 °F 50.0 °F 77% 29.87 in 10.0 mi SSE 25.3 mph - 0.00 in   Partly Cloudy
1:14 AM 57.2 °F 50.0 °F 77% 29.85 in 10.0 mi SSE 24.2 mph - N/A Rain Light Rain
1:27 AM 57.2 °F 50.0 °F 77% 29.86 in 10.0 mi South 20.7 mph - N/A   Partly Cloudy
1:58 AM 57.0 °F 50.2 °F 78% 29.86 in 10.0 mi South 16.1 mph 25.3 mph 0.01 in   Scattered Clouds
2:58 AM 58.1 °F 51.8 °F 80% 29.88 in 10.0 mi South 12.7 mph - N/A   Mostly Cloudy
3:28 AM 59.0 °F 53.6 °F 82% 29.86 in 10.0 mi South 15.0 mph - N/A   Mostly Cloudy
3:58 AM 59.0 °F 55.4 °F 88% 29.85 in 10.0 mi South 13.8 mph - N/A   Overcast
4:28 AM 57.2 °F 55.4 °F 94% 29.85 in 10.0 mi South 16.1 mph - N/A   Overcast
4:38 AM 57.2 °F 55.4 °F 94% 29.84 in 10.0 mi South 17.3 mph - N/A   Overcast
4:58 AM 57.7 °F 55.6 °F 92% 29.85 in 10.0 mi South 16.1 mph - N/A   Overcast
5:18 AM 57.2 °F 55.4 °F 94% 29.84 in 10.0 mi South 12.7 mph - N/A   Mostly Cloudy
5:38 AM 57.2 °F 55.4 °F 94% 29.84 in 10.0 mi South 12.7 mph - N/A   Overcast
5:58 AM 57.7 °F 56.5 °F 96% 29.84 in 10.0 mi South 12.7 mph - N/A   Overcast
6:13 AM 57.2 °F 57.2 °F 100% 29.83 in 6.0 mi South 9.2 mph - N/A Rain Light Rain
6:23 AM 57.2 °F 57.2 °F 100% 29.83 in 8.0 mi South 12.7 mph - N/A Rain Light Rain
6:27 AM 57.2 °F 57.2 °F 100% 29.83 in 10.0 mi South 10.4 mph - N/A   Mostly Cloudy
6:32 AM 57.2 °F 57.2 °F 100% 29.84 in 6.0 mi West 9.2 mph - N/A Rain Light Rain
6:42 AM 57.2 °F 57.2 °F 100% 29.83 in 5.0 mi South 10.4 mph - N/A Rain Light Rain
6:50 AM 57.2 °F 57.2 °F 100% 29.82 in 10.0 mi South 9.2 mph - N/A   Mostly Cloudy
6:58 AM 57.6 °F 57.6 °F 100% 29.83 in 10.0 mi South 8.1 mph - 0.06 in   Mostly Cloudy
7:28 AM 57.2 °F 57.2 °F 100% 29.83 in 10.0 mi South 8.1 mph - N/A   Overcast
7:58 AM 57.9 °F 57.7 °F 99% 29.85 in 10.0 mi South 10.4 mph - 0.01 in   Overcast
8:58 AM 59.4 °F 58.8 °F 98% 29.88 in 10.0 mi South 6.9 mph - N/A   Overcast
9:38 AM 60.8 °F 59.0 °F 94% 29.87 in 10.0 mi SSW 8.1 mph - N/A   Mostly Cloudy
9:58 AM 61.5 °F 59.5 °F 93% 29.89 in 10.0 mi SW 9.2 mph - N/A   Mostly Cloudy
10:18 AM 62.6 °F 59.0 °F 88% 29.88 in 10.0 mi SW 8.1 mph - N/A   Mostly Cloudy
10:38 AM 64.4 °F 59.0 °F 83% 29.88 in 10.0 mi WSW 8.1 mph - N/A   Scattered Clouds
10:58 AM 65.3 °F 59.7 °F 82% 29.89 in 10.0 mi West 8.1 mph - N/A   Scattered Clouds
11:58 AM 67.1 °F 50.2 °F 55% 29.88 in 10.0 mi NW 20.7 mph 26.5 mph N/A   Partly Cloudy
12:58 PM 66.7 °F 40.6 °F 39% 29.88 in 10.0 mi NNW 17.3 mph 26.5 mph N/A   Clear
1:30 PM 68.0 °F 37.4 °F 33% 29.87 in 10.0 mi WNW 18.4 mph 25.3 mph N/A   Clear
1:58 PM 67.6 °F 35.2 °F 30% 29.89 in 10.0 mi NW 18.4 mph - N/A   Clear
2:58 PM 66.4 °F 29.7 °F 25% 29.90 in 10.0 mi NW 20.7 mph 25.3 mph N/A   Clear
3:58 PM 65.1 °F 28.8 °F 26% 29.93 in 10.0 mi WNW 17.3 mph 26.5 mph N/A   Clear
4:58 PM 62.1 °F 28.6 °F 28% 29.95 in 10.0 mi NW 23.0 mph - N/A   Clear
5:58 PM 57.6 °F 27.9 °F 32% 29.97 in 10.0 mi NW 13.8 mph - N/A   Clear
6:58 PM 55.2 °F 26.8 °F 34% 30.01 in 10.0 mi NW 9.2 mph - N/A   Clear
7:58 PM 52.3 °F 28.8 °F 40% 30.03 in 10.0 mi NW 10.4 mph - N/A   Clear
8:58 PM 51.6 °F 28.2 °F 41% 30.05 in 10.0 mi WNW 9.2 mph - N/A   Clear
9:58 PM 47.7 °F 28.9 °F 48% 30.07 in 10.0 mi WNW 6.9 mph - N/A   Clear
10:58 PM 42.8 °F 28.9 °F 58% 30.08 in 10.0 mi North 2.3 mph - N/A   Clear
11:58 PM 45.1 °F 28.9 °F 53% 30.09 in 10.0 mi Calm Calm - N/A   Clear